GEFSCGP_con_probscp_168.txt.gz
Probability
0 0 0 0 0 0 0 0 0 0 0 1 2 2 2 2 6 13 20 23 22 18 14 14 15 17 19 18 15 12 9 7 7 7 5 3 1 0 1 2 2 1 1 1
0 0 0 0 0 0 0 0 0 0 0 0 1 1 1 1 4 11 20 25 25 22 19 17 17 18 21 21 18 15 10 8 8 8 6 3 1 1 1 2 3 2 1 1
0 0 0 0 0 0 0 0 0 0 0 0 0 0 0 0 4 11 20 27 29 27 24 22 21 21 22 23 22 18 12 10 10 10 9 6 4 3 3 3 3 2 1 1
0 0 0 0 0 0 0 0 0 0 0 0 0 0 0 1 5 12 20 26 29 29 29 27 25 24 21 21 21 18 13 11 10 10 10 9 7 5 3 2 3 2 1 1
0 0 0 0 0 0 0 0 0 0 0 0 0 0 0 1 4 11 18 23 26 30 33 31 27 22 19 20 20 17 14 12 10 9 8 8 8 5 2 1 1 1 1 1
0 0 0 0 0 0 0 0 0 0 0 0 0 0 0 1 4 9 15 22 27 32 33 30 25 20 18 21 22 18 15 14 11 9 7 6 6 4 2 1 0 0 0 0
0 0 0 0 0 0 0 0 0 0 0 0 0 0 0 2 5 9 15 22 30 32 29 25 20 16 16 19 20 17 15 13 11 8 6 5 4 3 3 2 1 0 0 0
0 0 0 0 0 0 0 0 0 0 0 0 0 1 1 3 6 10 15 22 27 28 24 20 15 12 12 15 15 13 11 9 8 7 6 4 4 3 3 2 1 0 0 0
0 0 0 0 0 0 0 0 0 0 0 0 0 1 2 3 5 10 14 18 21 20 18 15 13 11 12 14 14 11 8 7 6 6 6 5 4 3 3 2 1 0 0 0
0 0 0 0 0 0 0 0 0 0 0 0 0 1 1 1 4 8 11 13 14 13 12 12 12 12 13 14 14 11 8 6 6 5 5 5 4 4 4 3 2 2 2 1
0 0 0 0 0 0 0 0 0 0 0 0 0 0 0 0 3 7 9 10 10 10 11 12 12 12 13 16 15 12 8 5 4 4 4 5 5 5 5 5 5 5 5 4
0 0 0 0 0 0 0 0 0 0 0 0 0 0 0 1 3 7 10 11 11 12 14 15 14 14 15 16 15 12 8 5 4 4 4 6 6 6 5 6 6 6 6 6
0 0 0 0 0 0 0 0 0 0 0 0 0 0 1 3 5 9 12 13 13 13 13 14 15 17 18 17 15 12 9 7 5 5 6 7 7 6 6 6 6 6 6 6
0 0 0 0 0 0 0 0 0 0 0 0 0 0 1 4 7 9 12 13 12 12 11 13 17 20 20 16 12 10 9 8 7 5 6 7 6 6 6 6 5 5 5 6
0 0 0 0 0 1 2 1 1 1 0 0 0 0 1 5 9 10 12 14 14 13 13 16 20 21 19 14 10 8 8 8 7 5 5 5 5 5 5 5 4 4 4 4
0 0 0 0 0 2 2 2 2 2 2 0 0 1 3 8 12 13 15 21 22 20 20 23 24 22 18 15 11 7 7 8 7 5 3 3 4 5 5 5 4 3 3 3
0 0 0 0 0 1 2 2 3 5 5 4 4 5 8 13 15 15 18 25 28 26 26 27 26 22 19 17 12 7 5 6 6 4 3 3 4 4 5 5 4 4 4 4
0 0 0 0 0 0 1 3 6 9 10 9 9 10 12 15 18 18 19 24 27 26 26 27 25 22 19 17 14 8 5 4 4 3 3 4 4 4 4 4 4 4 4 4
0 0 0 0 0 0 2 4 7 9 11 12 12 15 17 19 21 23 24 24 24 24 25 26 25 22 18 16 16 12 8 5 4 3 4 4 5 4 4 4 3 3 3 2
0 0 0 0 0 0 2 5 7 7 9 12 15 18 22 23 23 26 29 28 26 27 27 26 24 21 17 16 17 16 12 7 5 3 3 4 5 5 5 4 3 2 1 1
0 0 0 0 0 1 4 7 7 5 9 15 19 21 24 27 28 33 36 34 32 30 28 25 22 19 17 16 16 16 13 9 6 5 4 3 4 5 5 3 2 1 0 0
0 0 0 0 1 2 5 8 7 7 13 20 23 24 27 32 37 42 42 37 34 30 26 23 19 17 16 16 16 15 14 12 10 7 5 3 2 3 3 2 1 1 0 0
1 1 1 3 5 6 7 7 6 9 17 23 24 25 28 33 38 41 39 34 31 28 25 21 19 17 16 16 16 16 16 15 12 9 6 4 3 3 3 1 0 1 1 0
4 4 4 7 10 11 10 8 7 10 16 21 24 25 26 28 30 31 30 28 27 26 24 22 21 20 17 14 13 13 14 13 12 9 6 5 4 5 4 1 0 1 1 1
6 6 7 8 10 11 11 9 9 12 15 19 23 23 21 20 20 21 21 21 21 22 23 23 22 19 14 10 8 7 8 8 8 8 6 5 4 4 3 1 0 1 1 0
5 6 7 8 7 7 8 9 11 14 16 18 20 20 16 15 16 16 17 16 17 19 21 21 20 17 11 6 4 4 5 5 6 6 6 5 4 3 2 1 0 0 0 0

GEFSCGP_con_probscp_174.txt.gz
Probability
0 0 0 0 0 0 0 0 0 0 0 0 0 0 1 3 6 10 12 14 19 23 25 26 25 23 26 33 35 32 28 24 20 14 7 2 1 1 2 2 1 0 0 0
0 0 0 0 0 0 0 0 0 0 0 0 0 0 0 2 5 9 12 16 21 26 29 30 28 27 31 37 38 36 31 26 22 17 10 6 4 2 1 1 0 0 0 0
0 0 0 0 0 0 0 0 0 0 0 0 0 0 0 0 3 7 12 17 23 28 32 34 34 33 34 38 39 37 33 28 25 22 16 13 11 8 4 2 0 0 0 0
0 0 0 0 0 0 0 0 0 0 0 0 0 0 0 0 1 4 10 17 24 29 33 35 34 33 33 34 34 33 30 28 27 26 22 20 18 14 8 3 1 0 0 0
0 0 0 0 0 0 0 0 0 0 0 0 0 0 0 0 0 3 9 16 22 27 32 33 32 30 30 30 31 30 28 27 27 26 23 21 20 16 10 6 3 1 0 0
0 0 0 0 0 0 0 0 0 0 0 0 0 0 0 0 0 2 6 13 19 23 28 30 30 28 26 27 28 29 28 26 24 23 22 21 20 17 14 9 6 3 1 0
0 0 0 0 0 0 0 0 0 0 0 0 0 0 0 0 0 1 4 10 16 20 23 25 26 25 23 22 24 27 27 24 20 20 21 21 20 19 17 12 8 5 2 1
0 0 0 0 0 0 0 0 0 0 0 0 0 0 0 1 1 3 5 9 14 17 18 20 23 22 19 18 22 26 27 24 20 18 18 17 17 17 15 11 8 6 5 5
0 0 0 0 0 0 0 0 0 0 0 0 0 0 0 1 3 5 7 9 13 16 17 19 22 22 18 19 21 24 25 24 21 18 16 13 13 13 11 9 7 7 8 8
0 0 0 0 0 0 0 0 0 0 0 0 0 0 0 1 4 7 9 11 14 19 22 24 27 25 22 21 21 20 21 23 22 19 15 12 10 9 8 8 9 9 9 10
0 0 0 0 0 0 0 0 0 0 0 0 0 0 0 1 3 7 10 13 18 25 29 32 32 29 27 25 20 16 16 19 18 16 14 12 9 8 7 9 11 10 10 11
0 0 0 0 0 0 0 0 0 0 0 0 0 0 1 1 2 6 11 16 23 31 35 37 38 35 33 29 23 17 15 14 14 12 12 11 9 9 10 12 13 12 11 12
0 0 0 0 0 0 0 0 0 0 0 0 0 0 0 1 3 6 12 21 29 36 39 41 43 41 37 35 30 23 17 13 12 12 13 13 12 12 14 15 15 13 12 12
0 0 0 0 0 0 0 0 0 0 0 0 0 0 0 1 3 8 14 23 32 39 42 45 47 45 42 40 35 28 22 18 17 17 17 16 15 14 15 17 17 16 14 12
0 0 0 0 0 0 0 0 0 0 0 0 0 0 1 2 4 8 14 23 33 40 43 46 49 51 50 46 39 31 27 26 23 20 19 19 17 15 15 17 18 17 16 13
0 0 0 0 0 0 0 0 0 0 0 0 0 1 3 5 7 9 14 21 31 39 44 49 54 60 61 55 47 38 32 29 25 21 20 20 19 16 15 15 16 16 15 14
0 0 0 0 0 0 0 0 0 0 1 1 2 3 6 10 14 14 15 20 27 36 46 53 59 66 68 63 54 44 36 30 26 23 20 18 16 13 11 11 12 13 13 12
0 0 0 0 0 0 1 2 2 2 3 4 6 8 12 18 22 21 23 27 31 37 45 52 58 64 67 62 53 44 39 35 30 25 20 14 10 8 8 10 12 13 14 13
0 0 0 0 0 0 1 4 5 5 8 11 14 16 22 25 25 26 33 41 44 45 46 50 55 61 63 59 49 42 39 37 32 25 19 12 7 6 8 12 15 17 18 17
0 0 0 0 0 1 3 5 7 8 14 22 26 28 31 32 32 37 46 52 55 54 53 53 57 62 62 57 49 42 38 35 30 23 16 12 10 9 11 15 18 20 20 19
0 0 0 0 0 3 7 10 12 17 26 34 35 34 37 42 49 53 55 57 59 58 56 58 62 64 62 56 49 42 37 34 28 21 15 13 12 10 12 16 18 19 19 18
2 2 1 2 4 10 16 19 24 33 42 44 40 38 43 51 57 58 58 58 58 56 55 57 62 62 60 54 47 42 39 34 29 23 18 16 13 12 14 17 17 16 17 17
8 8 8 10 15 24 29 32 38 44 48 49 45 43 46 49 51 52 53 55 55 53 53 54 57 58 57 53 46 43 41 37 33 28 24 21 18 17 17 17 16 15 14 13
17 18 20 23 29 35 38 40 42 44 47 48 48 46 41 39 40 42 44 47 49 50 51 52 53 53 53 51 48 45 42 40 38 33 27 23 21 19 17 15 14 12 11 9
25 27 30 32 36 38 39 38 37 39 42 44 46 43 36 32 32 33 36 38 41 44 46 48 48 48 46 45 45 44 42 41 38 33 27 21 17 15 13 11 10 9 7 6
27 31 34 36 38 39 37 35 32 34 37 39 41 39 34 31 30 30 31 33 36 40 43 44 45 44 40 37 39 40 40 39 37 32 25 17 12 11 10 10 9 7 5 5

GEFSCGP_con_probscp_180.txt.gz
Probability
0 0 0 0 0 0 0 0 0 0 0 0 0 1 3 5 7 11 20 34 48 52 51 57 64 70 73 73 70 64 58 52 44 36 32 30 29 27 23 17 13 12 10 8
0 0 0 0 0 0 0 0 0 0 0 0 0 2 4 5 6 10 17 29 44 52 57 62 67 70 72 73 70 64 58 54 47 40 33 29 28 27 23 18 15 13 11 9
0 0 0 0 0 0 0 0 0 0 0 0 0 2 6 6 6 8 12 23 37 50 61 68 70 70 71 71 68 62 59 56 52 44 36 29 29 29 24 20 18 16 14 11
0 0 0 0 0 0 0 0 0 0 0 0 0 3 6 6 5 6 10 19 32 45 59 69 71 69 69 68 65 61 59 57 53 47 38 32 31 29 24 20 19 18 16 14
0 0 0 0 0 0 0 0 0 0 0 0 0 2 3 3 3 6 12 22 33 44 56 65 68 67 65 65 63 61 60 57 53 47 39 33 29 26 20 17 18 17 16 15
0 0 0 0 0 0 0 0 0 0 0 0 0 1 1 1 2 6 15 25 36 45 53 59 63 64 64 63 63 62 61 58 52 44 37 31 27 24 19 16 16 17 16 14
0 0 0 0 0 0 0 0 0 0 0 0 0 0 1 3 4 7 14 24 34 42 47 53 59 61 61 60 61 62 62 58 50 41 35 32 29 26 23 20 19 18 16 13
0 0 0 0 0 0 0 0 0 0 0 0 0 1 3 5 6 7 12 21 28 35 42 48 53 56 55 54 57 63 64 59 50 42 38 37 33 27 24 23 21 19 17 14
0 0 0 0 0 0 0 0 0 0 0 0 0 2 5 7 6 7 12 20 25 31 38 44 48 50 50 51 55 62 64 59 51 46 42 39 34 26 21 21 21 20 18 17
0 0 0 0 0 0 0 0 0 0 0 0 0 1 5 7 6 7 14 22 28 32 36 43 47 49 50 53 56 60 63 60 54 48 41 35 31 26 21 20 21 21 20 19
0 0 0 0 0 0 0 0 0 0 0 0 0 1 3 5 6 9 17 26 32 34 37 43 50 53 54 56 60 63 65 62 56 49 40 33 30 27 24 22 22 21 19 18
0 0 0 0 0 0 0 0 0 0 0 0 0 1 3 4 7 13 22 31 36 38 40 46 54 59 61 62 64 67 66 62 57 51 44 38 33 30 27 23 22 21 19 16
0 0 0 0 0 0 0 0 0 0 0 0 0 1 3 5 9 17 27 34 38 42 47 53 62 68 70 70 70 69 65 61 57 52 48 42 35 31 28 25 23 21 19 18
0 0 0 0 0 0 0 0 0 0 0 0 1 2 4 7 12 19 29 37 41 45 53 62 72 78 80 79 77 71 66 62 57 53 49 43 35 30 28 26 24 22 21 21
0 0 0 0 0 0 0 0 0 0 0 1 3 7 10 12 16 24 32 40 45 49 57 68 79 84 85 84 80 73 68 64 59 55 52 46 38 31 27 26 24 24 24 24
0 0 0 0 0 0 0 0 0 0 1 2 7 12 17 20 25 31 37 42 49 55 62 73 83 86 87 85 80 74 70 66 63 59 56 51 43 34 28 25 25 25 26 25
1 2 1 0 0 0 0 1 1 1 3 7 13 19 26 31 36 41 44 48 55 63 70 78 84 86 87 85 81 76 73 68 66 64 60 54 46 37 31 27 27 27 26 25
3 5 2 0 0 0 1 3 3 4 9 15 21 27 33 40 43 48 56 60 63 69 76 81 83 84 85 83 81 78 73 69 67 66 63 57 48 41 36 32 30 29 27 26
5 6 3 0 0 1 3 5 5 7 14 21 27 33 38 40 43 55 68 70 70 73 77 79 79 80 82 83 82 78 73 68 67 66 63 57 51 45 39 35 33 31 29 28
3 5 2 0 0 2 5 6 6 9 18 26 34 41 44 44 49 65 76 75 73 75 76 75 75 78 82 83 83 79 74 69 67 65 60 55 50 43 38 35 33 30 29 28
1 2 2 1 1 5 8 9 12 21 31 40 47 53 56 60 67 75 79 78 76 76 76 75 76 80 83 84 82 80 75 70 67 62 57 52 47 40 36 34 32 30 29 29
3 4 6 7 9 14 19 22 30 42 50 55 60 63 68 74 77 78 77 76 76 75 75 76 78 81 83 83 81 78 74 70 66 59 53 49 45 39 34 33 32 30 28 28
9 12 15 18 23 30 36 40 47 55 60 62 65 69 72 74 74 72 71 71 72 72 73 74 76 78 79 79 77 74 70 67 62 56 52 48 44 39 35 32 29 27 26 25
14 19 23 28 34 39 42 46 51 56 58 59 62 65 66 68 68 66 64 64 66 67 69 70 71 72 73 73 71 67 65 64 59 54 50 47 42 39 36 31 26 25 24 22
17 23 29 34 38 40 41 43 47 50 51 54 57 58 58 59 60 58 57 58 59 62 65 67 67 65 64 65 63 60 60 60 56 50 45 42 38 34 32 28 23 20 18 17
20 25 31 36 40 41 41 41 43 45 47 51 54 54 52 52 53 53 52 54 56 59 65 67 64 59 57 58 58 56 57 57 53 46 41 38 35 31 27 25 20 14 12 11

GEFSCGP_con_probscp_186.txt.gz
Probability
0 0 0 0 0 0 0 0 0 0 0 1 1 1 1 1 5 11 20 28 31 31 32 35 39 40 38 36 35 32 27 21 17 14 8 4 3 3 3 1 1 2 5 5
0 0 0 0 0 0 0 0 0 0 0 0 0 0 0 1 4 10 18 26 30 32 33 36 40 42 41 39 35 32 26 21 17 13 9 6 4 3 2 1 1 3 5 5
0 0 0 0 0 0 0 0 0 0 0 0 0 0 0 0 3 9 17 23 28 31 34 38 42 45 45 42 37 31 25 20 17 14 11 9 7 4 3 1 1 3 4 4
0 0 0 0 0 0 0 0 0 0 0 0 0 0 0 2 6 12 16 22 26 30 34 38 41 45 47 44 39 32 25 20 18 16 14 13 10 7 4 3 2 3 3 3
0 0 0 0 0 0 0 0 0 0 0 0 0 0 0 3 9 15 18 22 27 30 34 37 40 44 46 45 41 36 29 23 20 18 17 15 13 10 8 5 3 3 3 3
0 0 0 0 0 0 0 0 0 0 0 0 0 0 0 3 8 15 21 25 28 32 37 40 43 46 46 45 43 40 34 26 22 20 18 15 13 11 9 6 5 4 4 3
0 0 0 0 0 0 0 0 0 0 0 0 0 0 0 2 6 13 21 26 28 34 40 44 48 48 47 46 45 42 36 29 24 21 17 14 12 10 7 6 5 5 4 3
0 0 0 0 0 0 0 0 0 0 0 0 0 0 1 3 7 14 21 25 29 34 40 44 48 48 46 44 43 39 33 27 24 21 18 14 12 9 7 5 5 5 4 3
0 0 0 0 0 0 0 0 0 0 0 0 0 1 2 5 10 16 22 26 30 33 37 40 42 43 42 40 39 35 30 25 22 19 18 16 14 11 8 6 5 5 4 4
0 0 0 0 0 0 0 0 0 0 0 0 0 1 2 6 12 18 22 26 29 30 32 34 34 35 36 35 34 32 28 25 23 20 17 16 14 12 9 6 5 4 4 3
0 0 0 0 0 0 0 0 0 0 0 0 0 0 2 6 13 20 24 26 27 28 30 32 31 31 33 33 31 29 27 26 25 22 18 14 12 10 7 5 4 3 3 2
0 0 0 0 0 0 0 0 0 0 0 0 0 1 3 9 17 25 28 29 29 29 31 34 34 34 37 37 33 30 30 29 27 22 17 13 10 8 6 5 4 4 3 3
0 0 0 0 0 0 0 0 0 0 0 0 1 2 6 14 23 29 32 33 33 32 35 39 41 41 43 44 41 38 37 36 31 24 17 13 10 8 6 6 5 5 5 6
0 0 0 0 0 0 0 0 0 0 0 1 2 5 10 17 25 29 31 34 37 37 40 46 47 46 48 50 48 45 42 39 34 27 20 15 11 9 7 6 5 5 6 6
0 0 0 0 0 0 0 0 0 0 1 2 5 8 12 17 22 26 29 33 37 39 44 50 51 51 53 54 51 46 42 39 35 30 25 18 14 11 10 8 6 5 5 4
0 0 0 0 0 0 0 1 1 1 2 4 9 12 14 17 22 28 33 36 38 40 46 53 55 56 57 57 54 49 44 40 37 34 28 21 17 15 12 9 7 7 6 5
0 0 0 0 0 0 1 2 2 4 5 6 10 14 16 18 23 31 37 38 38 41 48 55 58 60 60 58 57 53 48 43 40 36 30 23 18 15 12 9 7 8 8 9
0 0 0 0 0 0 1 2 4 9 11 10 10 13 15 18 25 33 37 37 36 40 48 54 57 59 60 59 56 54 52 48 43 39 32 25 18 14 10 8 7 7 8 10
0 0 0 0 0 0 1 2 6 13 18 17 14 15 17 21 29 35 37 37 38 42 46 49 52 56 60 59 56 53 52 49 45 41 35 27 20 15 11 8 7 8 9 10
0 0 0 0 0 1 3 5 8 14 20 21 21 22 23 25 30 35 39 41 45 48 47 46 50 55 59 59 55 52 49 46 44 40 34 29 24 19 14 10 9 10 10 10
0 0 0 0 0 1 5 9 9 11 16 21 26 29 29 29 31 37 42 45 48 50 50 49 50 52 55 56 55 51 47 43 40 37 33 29 25 20 15 12 11 11 11 10
0 0 0 0 1 3 9 11 10 10 16 23 30 35 37 37 39 43 45 46 47 48 49 50 51 49 49 51 52 51 46 41 38 35 30 25 21 17 13 11 11 11 10 10
3 3 4 4 6 9 13 15 15 15 19 25 32 38 42 45 46 46 47 46 45 45 45 47 48 46 45 46 48 48 44 40 36 32 27 22 18 15 12 11 11 11 10 11
8 9 10 12 14 15 18 20 20 20 22 25 31 37 42 44 44 44 45 45 42 40 41 43 44 43 42 43 45 45 42 38 34 30 25 21 17 15 13 12 11 11 10 10
9 10 12 14 16 16 17 18 20 21 22 24 28 34 39 41 40 40 41 39 37 35 35 36 37 37 37 38 39 38 35 32 29 27 25 20 16 14 13 12 11 10 9 8
7 8 11 13 13 13 12 13 16 20 21 22 25 31 36 39 39 39 37 35 33 31 30 30 31 32 32 32 32 30 28 28 26 25 24 19 15 13 13 12 12 9 6 5

GEFSCGP_con_probscp_192.txt.gz
Probability
0 0 0 0 0 0 0 0 0 0 0 0 0 0 0 0 0 0 2 5 6 4 4 7 9 11 12 12 13 15 18 19 16 14 11 8 5 4 3 2 1 1 1 1
0 0 0 0 0 0 0 0 0 0 0 0 0 0 0 0 0 0 1 4 5 4 5 8 11 13 14 14 13 13 15 16 16 14 12 8 6 4 3 3 2 2 2 2
0 0 0 0 0 0 0 0 0 0 0 0 0 0 0 0 0 0 0 2 3 4 6 10 13 14 15 15 14 12 12 12 14 14 12 10 8 7 6 4 3 3 3 3
0 0 0 0 0 0 0 0 0 0 0 0 0 0 0 0 0 0 0 1 3 5 9 12 13 14 15 15 14 12 9 10 11 11 11 11 11 11 8 5 3 3 3 3
0 0 0 0 0 0 0 0 0 0 0 0 0 0 0 0 0 0 1 2 5 8 11 13 14 15 15 15 14 12 9 9 11 11 10 11 12 11 8 4 2 1 2 2
0 0 0 0 0 0 0 0 0 0 0 0 0 0 0 0 0 1 3 5 8 10 12 14 15 17 16 15 16 14 11 10 11 11 9 9 10 9 6 3 1 0 1 1
0 0 0 0 0 0 0 0 0 0 0 0 0 0 0 0 0 1 5 8 10 9 11 14 17 17 17 18 19 18 14 12 12 10 8 8 8 7 5 4 2 1 1 0
0 0 0 0 0 0 0 0 0 0 0 0 0 0 0 0 1 4 6 8 9 10 11 14 16 18 19 21 22 21 18 14 13 10 8 8 8 6 5 4 3 3 2 2
0 0 0 0 0 0 0 0 0 0 0 0 0 0 0 1 4 7 8 8 8 10 13 14 16 18 20 22 23 23 22 19 14 10 8 8 8 6 4 4 4 4 4 4
0 0 0 0 0 0 0 0 0 0 0 0 0 0 0 1 4 7 8 9 9 11 13 16 19 21 21 22 23 24 24 21 16 11 8 6 6 5 4 4 5 5 4 4
0 0 0 0 0 0 0 0 0 0 0 0 0 0 1 2 3 5 8 9 11 12 15 19 24 25 23 21 21 22 22 20 15 12 9 6 5 5 6 6 6 4 3 3
0 0 0 0 0 0 0 0 0 0 0 0 0 1 2 2 2 4 8 10 11 14 16 21 25 27 24 22 21 22 21 18 15 13 10 7 6 7 8 7 6 5 4 4
0 0 0 0 0 0 0 0 0 0 0 0 0 1 2 2 1 3 8 10 13 17 21 24 27 29 28 25 24 24 23 19 17 15 12 9 8 9 9 8 7 6 6 6
0 0 0 0 0 0 0 0 0 0 0 0 0 1 2 1 0 2 7 11 15 20 25 28 30 31 30 26 25 27 26 23 21 17 14 12 11 10 9 8 7 6 6 6
0 0 0 1 1 1 1 1 0 0 0 0 1 2 3 1 0 2 8 14 17 18 22 27 31 32 30 28 28 30 30 29 26 21 19 17 14 11 9 8 7 6 6 6
0 0 0 1 2 2 2 1 0 0 0 0 2 3 3 1 1 3 9 16 17 16 18 22 26 28 30 31 33 35 34 33 30 27 25 22 17 12 10 8 7 7 7 6
0 0 0 1 1 1 1 1 0 0 0 0 1 2 2 2 2 3 9 16 18 17 17 18 20 22 26 30 35 37 37 35 34 32 28 25 21 15 11 9 8 8 7 6
0 0 0 0 0 0 0 0 0 0 0 0 1 2 4 4 3 3 9 16 20 19 17 16 18 20 23 29 34 38 38 37 35 32 28 25 24 20 14 11 10 10 8 6
0 0 0 0 0 0 0 0 0 0 0 1 3 5 6 7 5 4 8 16 21 20 18 18 22 25 28 32 37 40 40 37 35 32 27 24 25 25 19 14 13 11 9 8
0 0 0 0 0 0 0 0 1 1 1 2 5 7 9 9 8 6 10 18 23 22 20 22 27 32 35 37 40 41 40 37 34 31 27 23 25 26 21 16 14 11 9 9
0 0 0 0 0 0 0 1 1 0 0 2 5 9 12 12 13 14 17 22 25 23 21 24 31 36 39 41 41 41 39 36 32 30 27 23 22 22 17 13 11 8 7 7
0 0 0 0 0 0 1 2 2 1 1 2 5 10 14 17 18 21 24 25 26 26 24 26 32 36 39 41 41 40 37 33 31 30 27 21 18 16 12 8 6 5 4 5
0 0 1 2 2 2 3 5 5 4 3 4 6 10 16 19 19 21 24 24 26 28 28 30 33 34 35 38 39 37 35 33 32 30 26 19 15 12 9 6 5 5 4 4
0 1 4 5 6 6 6 7 7 8 8 8 8 10 14 17 16 16 20 23 26 28 29 31 33 32 32 34 35 34 33 33 31 29 24 19 16 12 9 7 7 7 7 6
0 2 5 8 8 8 7 8 10 12 12 10 8 8 11 13 14 14 18 22 25 26 26 28 31 30 30 30 31 30 30 31 30 28 24 19 16 12 8 7 7 7 7 6
0 2 5 7 8 8 7 8 11 13 12 9 7 6 8 12 13 15 17 21 24 24 24 26 28 27 27 27 28 27 28 29 30 27 23 18 14 11 7 6 6 6 5 6

GEFSCGP_con_probscp_198.txt.gz
Probability
0 0 0 0 0 0 0 0 0 0 0 0 0 0 0 0 0 1 5 8 9 9 8 8 10 11 13 19 25 25 25 27 26 19 11 7 5 4 3 1 1 2 2 2
0 0 0 0 0 0 0 0 0 0 0 0 0 0 0 0 0 1 4 6 7 8 9 12 14 13 14 21 26 27 26 26 25 18 10 7 7 6 4 2 1 2 3 3
0 0 0 0 0 0 0 0 0 0 0 0 0 0 0 0 1 2 3 4 5 5 9 14 17 16 15 21 26 27 27 27 24 17 11 9 10 9 7 4 3 4 4 4
0 0 0 0 0 0 0 0 0 0 0 0 0 0 0 0 2 4 5 5 6 6 7 13 17 17 15 19 25 29 31 30 26 19 14 12 12 10 8 6 6 7 6 6
0 0 0 0 0 0 0 0 0 0 0 0 0 0 0 1 3 5 7 9 10 9 9 12 16 17 17 18 24 31 35 33 27 21 17 14 12 9 8 8 8 8 8 8
0 0 0 0 0 0 0 0 0 0 0 0 0 0 1 2 3 5 8 12 13 13 14 16 19 20 20 21 25 33 39 38 31 23 19 16 13 10 8 8 8 8 8 9
0 0 0 0 0 0 0 0 0 0 0 0 0 0 2 3 3 3 8 12 14 14 17 21 24 24 23 24 29 37 44 44 37 28 21 16 13 12 10 8 7 7 7 7
0 0 0 0 0 0 0 0 0 0 0 0 0 1 2 3 3 4 7 12 15 16 19 22 25 25 24 25 30 37 46 46 39 31 25 19 15 13 12 10 7 6 5 5
0 0 0 0 0 0 0 0 0 0 0 0 0 1 2 2 2 4 8 13 18 19 18 18 20 23 24 25 27 32 41 42 35 30 26 22 18 15 13 11 9 7 6 5
0 0 0 0 0 0 0 0 0 0 0 0 0 0 1 2 3 4 7 13 19 18 15 15 19 23 26 27 26 29 35 36 31 27 26 24 22 19 15 14 12 10 9 8
0 0 0 0 0 0 0 0 0 0 0 0 0 1 3 3 3 4 7 13 17 16 15 19 24 27 31 32 32 34 35 34 31 29 28 27 26 24 21 18 15 14 13 11
0 0 0 0 0 0 0 0 0 0 0 0 0 1 4 5 4 6 9 14 17 18 21 25 29 33 37 39 40 40 38 37 35 33 34 34 32 29 25 21 18 16 15 14
0 0 0 0 0 0 0 0 0 0 0 0 0 2 4 6 7 9 12 17 20 22 26 32 36 39 42 46 47 46 41 38 36 36 37 38 37 34 28 23 21 20 18 16
0 0 0 0 0 0 0 0 0 0 0 0 0 2 6 9 11 13 16 19 22 25 30 38 42 44 47 50 52 51 45 40 38 39 39 39 39 37 32 27 25 24 22 19
0 0 0 0 0 0 0 0 0 0 0 0 0 3 8 11 12 15 19 22 25 28 32 39 44 46 49 53 55 54 51 47 46 46 44 42 39 37 35 32 29 27 25 23
0 0 0 0 0 0 0 0 0 0 0 0 0 3 8 10 11 15 20 24 27 28 31 37 42 45 50 53 54 54 53 54 53 52 51 47 43 41 40 35 30 28 27 27
0 0 0 0 0 0 0 0 0 0 0 0 2 4 7 9 11 15 19 23 24 26 31 37 40 46 52 53 51 52 55 58 59 57 55 52 48 45 43 37 30 27 27 28
0 0 0 0 0 0 0 0 0 0 1 3 6 7 8 9 11 14 17 19 21 24 30 38 41 47 53 52 50 51 57 61 63 62 59 55 50 46 44 39 33 29 29 29
0 0 0 0 0 0 0 0 0 2 5 8 10 10 9 9 10 14 19 21 23 26 30 37 43 48 52 53 53 54 56 60 64 64 62 59 54 49 45 41 37 35 33 33
0 0 0 0 0 0 1 1 1 4 9 13 13 12 11 11 13 19 25 28 31 33 33 36 43 49 52 53 55 56 55 57 59 62 62 60 57 52 47 44 41 38 36 35
1 0 0 0 0 2 4 5 6 8 13 17 17 16 15 17 23 28 31 34 37 39 37 37 43 48 51 54 56 55 54 53 53 55 57 55 53 50 48 46 43 38 34 32
2 1 1 1 2 5 10 12 14 16 18 19 21 23 23 23 27 32 34 36 38 41 41 40 44 49 50 52 53 53 52 51 49 49 49 47 46 46 47 47 43 36 31 28
2 3 3 4 6 8 11 15 18 21 20 20 23 26 26 25 26 30 35 37 36 37 40 42 45 48 49 48 48 49 49 49 48 46 44 43 43 44 45 43 39 33 28 26
2 3 4 5 6 8 11 14 17 19 20 20 24 27 26 24 25 29 33 34 33 32 34 39 42 43 44 43 43 45 46 46 46 45 43 41 39 39 39 36 32 28 25 25
3 3 4 4 5 7 10 13 15 18 19 20 23 25 23 21 23 25 26 27 27 26 28 31 34 35 36 38 40 42 44 45 44 43 41 37 33 31 31 29 25 21 20 19
3 4 4 4 5 7 10 12 14 17 19 21 23 23 20 18 19 20 21 21 22 24 25 27 30 30 32 35 39 41 43 44 43 42 38 33 29 26 25 25 20 16 15 13

GEFSCGP_con_probscp_204.txt.gz
Probability
0 0 0 0 0 0 0 0 0 0 0 0 0 1 2 2 6 12 16 20 25 32 36 36 35 41 52 61 61 56 51 49 42 35 30 23 19 18 15 14 18 19 12 8
0 0 0 0 0 0 0 0 0 0 0 0 1 2 3 3 6 11 16 20 24 31 39 43 43 44 54 62 62 56 53 51 45 38 32 25 21 19 16 17 20 20 15 11
0 0 0 0 0 0 0 0 0 0 0 0 1 3 5 6 8 11 15 17 20 29 40 48 48 49 55 62 61 58 58 55 48 41 35 28 24 20 18 20 21 21 18 16
0 0 0 0 0 0 0 0 0 0 0 0 0 2 6 9 10 12 13 13 16 25 38 47 50 49 53 57 61 64 64 59 51 43 37 31 27 22 20 21 22 21 20 19
0 0 0 0 0 0 0 0 0 0 0 0 0 1 4 8 9 10 10 11 14 21 33 45 49 47 48 54 63 69 68 62 54 46 40 34 29 23 20 21 23 22 20 19
0 0 0 0 0 0 0 0 0 0 0 0 0 0 2 4 6 7 8 10 13 18 29 42 49 50 52 57 66 72 71 65 58 51 43 36 28 22 19 21 24 22 19 17
0 0 0 0 0 0 0 0 0 0 0 0 0 1 2 4 5 6 9 13 16 19 28 39 49 56 60 62 68 73 74 70 63 55 48 40 30 22 20 21 22 21 18 16
0 0 0 0 0 0 0 0 0 0 0 0 0 2 4 5 5 7 12 17 21 24 30 38 49 59 63 64 68 73 76 73 66 59 53 45 36 27 23 22 22 20 18 16
0 0 0 0 0 0 0 0 0 0 0 0 0 3 7 7 7 10 15 20 25 30 33 38 47 57 61 62 66 71 73 71 66 59 54 47 38 32 28 26 22 21 20 18
0 0 0 0 0 0 0 0 0 0 0 0 0 3 8 10 9 11 15 21 26 32 34 36 42 50 55 58 61 66 67 65 61 57 52 44 38 33 31 28 25 24 23 22
0 0 0 0 0 0 0 0 0 0 0 0 1 3 7 10 10 11 15 20 26 31 33 35 39 44 48 52 57 62 63 60 56 54 50 44 39 36 32 30 28 28 27 26
0 0 0 0 0 0 0 0 0 0 0 0 1 4 7 10 11 12 18 25 28 30 35 40 44 45 47 51 58 63 62 58 55 54 51 46 43 41 38 36 34 33 31 29
0 0 0 0 0 0 0 0 0 0 0 0 2 6 9 11 13 18 26 31 32 33 38 46 51 51 51 56 62 64 61 58 58 59 56 51 49 49 47 45 42 39 36 33
0 0 0 0 0 0 0 0 0 0 0 1 4 9 13 15 19 26 34 38 38 39 41 48 55 58 59 64 68 66 61 60 62 64 62 59 57 57 56 54 52 48 42 39
0 1 1 0 0 0 0 0 0 0 1 2 5 12 18 23 28 33 39 44 46 47 47 53 60 64 64 66 69 69 66 65 66 66 66 63 62 63 64 63 61 57 51 45
1 1 2 1 0 0 0 0 0 0 1 2 6 14 23 29 33 36 41 46 49 49 51 56 64 69 67 66 67 69 69 68 68 67 66 65 65 67 69 69 67 64 58 51
1 1 2 1 0 0 0 0 0 0 1 2 6 15 24 31 37 40 42 45 46 46 47 53 61 67 67 63 63 65 68 69 69 67 66 66 67 68 70 69 67 66 61 56
1 2 2 0 0 0 1 1 1 1 2 5 9 16 23 31 39 44 44 44 44 43 44 48 54 59 61 60 60 61 64 66 67 66 65 65 66 67 67 66 64 63 60 58
2 4 3 1 0 1 2 3 3 4 6 11 15 20 26 31 36 41 43 44 44 44 45 48 50 52 54 57 58 58 60 63 65 64 64 64 63 64 65 64 61 58 57 57
2 3 3 2 1 2 4 5 4 7 14 22 27 31 33 35 37 41 43 43 45 47 48 50 49 48 50 54 56 56 58 62 63 62 62 62 60 60 63 63 59 57 55 54
2 3 3 1 2 5 10 12 13 20 29 34 37 40 41 43 45 46 45 46 47 49 50 50 48 47 48 51 54 56 58 60 60 59 59 58 56 56 58 59 58 55 54 52
5 5 5 5 8 14 19 22 29 37 41 41 41 42 43 44 46 47 47 48 47 47 49 50 49 48 48 51 55 59 60 58 57 57 57 54 52 51 53 55 54 52 49 48
5 7 9 12 17 22 23 26 32 36 38 39 40 41 40 39 41 44 46 47 47 46 48 49 49 49 51 54 58 58 57 55 53 53 53 52 50 49 50 51 48 44 43 42
3 4 8 12 17 19 18 19 22 23 26 30 34 35 35 36 37 40 43 46 47 47 48 47 45 46 51 56 56 53 52 50 51 50 48 47 46 45 46 45 39 35 35 37
4 3 6 10 14 13 11 11 13 15 18 22 26 27 29 31 31 33 38 43 45 45 45 44 41 41 46 51 52 49 48 49 50 49 45 42 41 41 40 37 30 25 24 25
6 6 8 13 15 12 10 9 10 13 17 20 22 23 24 25 25 28 34 39 41 42 42 41 39 38 41 46 49 48 48 49 50 48 44 40 38 38 36 31 24 19 16 15

GEFSCGP_con_probscp_210.txt.gz
Probability
0 0 0 0 0 0 0 0 0 0 0 0 0 1 2 2 4 7 10 11 11 10 7 8 12 17 20 18 14 12 14 16 16 14 10 7 5 4 4 4 3 1 0 0
0 0 0 0 0 0 0 0 0 0 1 1 2 2 2 4 6 9 12 13 12 10 9 10 15 18 22 22 19 16 17 19 19 17 13 8 5 3 3 4 4 2 1 1
0 0 0 0 0 0 0 0 0 0 1 2 3 3 3 6 8 11 15 17 16 13 12 15 19 21 23 26 26 23 23 23 23 20 16 12 7 4 3 4 5 4 3 3
0 0 0 0 0 0 0 0 0 0 1 1 1 2 3 6 8 10 15 19 19 17 17 18 21 23 24 27 29 29 27 25 24 22 19 15 10 5 3 4 5 5 4 4
0 0 0 0 0 0 0 0 0 0 0 0 0 1 2 4 6 8 12 19 20 20 20 20 22 24 25 26 29 32 30 27 26 25 23 19 15 9 5 4 4 4 4 5
0 0 0 0 0 0 0 0 0 0 0 0 0 0 1 3 4 6 11 16 19 19 21 22 24 27 28 29 31 33 32 30 29 27 24 21 18 12 8 5 5 5 6 6
0 0 0 0 0 0 0 0 0 0 0 0 0 0 1 2 3 6 10 14 17 19 21 24 27 30 31 34 38 37 34 32 30 27 23 19 16 14 10 8 7 7 7 6
0 0 0 0 0 0 0 0 0 0 0 0 0 0 1 3 4 6 10 14 17 21 24 27 30 32 32 35 41 39 33 30 27 25 20 14 12 11 11 10 9 9 8 7
0 0 0 0 0 0 0 0 0 0 0 0 0 0 1 3 5 9 13 16 20 25 27 28 29 29 29 31 35 36 31 26 24 22 17 12 8 8 9 9 9 8 7 7
0 0 0 0 0 0 0 0 0 0 0 0 0 0 2 4 7 11 15 18 21 24 26 26 26 25 25 26 30 34 32 27 23 20 16 11 7 6 7 8 7 7 7 7
0 0 0 0 0 0 0 0 0 0 0 0 0 0 2 4 8 11 16 20 22 22 23 24 25 25 25 26 30 34 35 31 26 23 19 15 11 8 8 8 6 7 8 8
0 0 0 0 0 0 0 0 0 0 0 0 0 1 3 7 11 14 18 24 25 23 22 23 26 28 28 29 32 34 35 33 29 26 24 22 18 15 13 11 10 10 10 9
0 0 0 0 0 0 0 0 0 0 0 0 0 3 9 15 18 20 23 28 29 25 23 25 28 29 28 28 31 33 33 31 29 27 25 24 22 20 18 16 13 12 11 10
0 0 0 0 0 0 0 0 0 0 0 0 2 8 16 23 26 27 30 32 32 29 26 28 32 31 27 25 28 30 31 30 28 25 23 22 21 21 19 18 14 12 11 11
0 0 0 0 0 0 0 0 0 0 0 2 5 11 19 26 30 33 35 35 34 32 29 31 35 34 30 27 28 29 29 28 26 23 21 22 22 21 22 20 16 12 10 10
0 0 0 0 0 0 0 0 0 0 1 5 9 14 22 29 32 34 35 34 33 31 29 31 33 33 31 30 31 31 28 26 25 24 23 24 24 25 27 26 21 14 11 11
0 0 0 0 0 0 0 1 2 2 4 8 13 18 26 32 32 32 33 32 30 29 28 28 28 28 28 28 30 31 28 26 27 27 27 28 29 29 31 32 28 21 17 16
0 0 0 0 0 0 1 2 5 6 8 12 16 22 31 35 33 33 32 30 28 26 25 24 24 25 25 24 26 30 30 29 30 31 32 33 34 33 36 38 36 30 25 23
0 0 0 0 0 0 2 5 8 10 14 17 19 25 32 35 35 32 30 29 27 25 23 22 22 22 22 23 26 30 32 34 35 35 36 36 36 36 38 41 39 34 30 28
0 0 0 0 0 1 4 9 12 13 17 20 23 27 31 33 32 29 28 29 29 28 26 25 23 23 24 26 29 31 33 36 37 37 37 36 35 34 37 38 37 34 31 28
0 0 0 0 0 2 7 12 14 14 17 21 25 28 29 29 28 29 30 32 32 32 32 31 29 27 27 29 31 32 33 34 35 35 34 33 32 31 32 34 33 33 30 27
1 0 0 1 1 3 6 9 11 12 14 20 24 26 27 26 27 30 32 32 32 32 33 32 31 29 28 29 30 30 30 31 30 30 28 28 29 29 30 29 29 29 28 27
3 2 3 4 4 4 5 7 9 10 12 16 21 23 24 26 27 28 28 28 29 30 30 29 28 27 26 27 28 28 27 26 25 24 23 23 25 27 27 26 26 26 26 27
7 6 7 7 6 6 6 8 10 11 11 13 18 21 23 25 25 24 22 22 23 24 25 26 24 24 24 25 26 25 23 21 21 20 19 20 22 25 25 23 21 22 23 23
8 7 7 7 7 7 7 8 10 10 9 10 13 18 21 22 22 20 18 17 17 18 20 21 21 21 21 22 21 21 19 18 19 19 19 19 21 23 22 19 17 16 17 18
6 6 6 5 6 6 6 7 8 8 7 7 10 14 17 20 22 20 17 15 14 15 16 18 20 20 20 19 17 17 17 17 17 17 18 20 22 21 20 17 13 12 13 13

GEFSCGP_con_probscp_216.txt.gz
Probability
0 0 0 0 0 0 0 0 0 0 1 2 3 3 2 3 5 6 6 4 2 1 1 2 2 1 1 1 2 3 5 7 7 6 5 4 2 0 0 0 0 0 0 0
0 0 0 0 0 0 0 0 0 0 0 1 2 3 3 4 5 5 4 2 1 0 0 1 1 0 0 1 3 4 5 7 8 7 6 5 3 1 0 0 0 0 0 0
0 0 0 0 0 0 0 0 0 0 0 0 1 2 4 4 4 3 2 1 1 1 0 0 0 0 1 3 5 5 5 7 9 9 8 7 6 4 2 1 1 0 0 0
0 0 0 0 0 0 0 0 0 0 0 0 0 1 2 3 3 2 1 1 2 2 2 1 1 0 2 4 6 6 6 6 8 9 10 10 10 7 4 3 2 0 0 0
0 0 0 0 0 0 0 0 0 0 0 0 0 0 0 1 2 3 2 2 3 4 4 3 2 1 2 3 4 5 5 6 6 8 9 11 10 7 4 2 1 0 0 1
0 0 0 0 0 0 0 0 0 0 0 0 0 0 0 0 1 2 3 4 4 4 4 4 5 5 4 3 4 4 5 5 6 7 9 9 7 5 3 2 1 0 1 3
0 0 0 0 0 0 0 0 0 0 0 0 0 0 0 0 0 2 4 6 6 5 5 8 12 13 10 7 7 8 7 6 7 9 10 8 5 3 3 3 2 2 3 3
0 0 0 0 0 0 0 0 0 0 0 0 0 0 0 1 1 2 5 8 9 9 8 11 17 19 16 13 11 12 12 10 9 11 11 8 5 4 4 4 5 6 4 2
0 0 1 1 1 0 0 0 0 0 0 0 0 0 1 2 3 5 7 10 13 12 11 12 16 18 18 17 15 14 14 13 11 10 10 7 5 6 6 5 5 5 4 2
0 1 2 2 1 0 0 0 0 0 0 0 0 0 1 3 4 6 9 11 13 13 11 10 13 15 17 19 18 16 15 14 11 10 10 8 8 9 7 4 3 2 2 2
0 1 2 2 1 0 0 0 0 0 0 0 0 0 0 2 4 6 8 9 11 12 10 8 11 15 18 20 21 20 18 16 13 13 14 13 12 9 6 3 3 3 3 3
0 0 1 1 1 0 0 0 0 0 0 0 0 0 0 1 3 6 7 7 8 10 9 8 11 15 18 20 21 22 22 20 18 17 18 18 14 9 6 5 4 5 6 7
0 0 0 0 0 0 0 0 0 0 0 0 0 1 2 3 4 7 8 9 10 10 9 9 11 12 13 15 17 19 20 21 21 21 21 20 15 9 7 7 7 7 8 9
0 0 0 0 0 0 0 0 0 0 0 0 0 1 4 4 6 9 11 14 15 15 13 12 10 10 10 11 13 15 16 18 20 22 21 20 16 12 10 10 11 11 10 9
0 0 0 0 0 1 1 1 1 0 0 0 0 2 4 6 9 13 18 20 20 17 16 14 13 13 12 12 13 14 14 14 17 20 20 18 15 12 11 13 16 16 13 11
0 0 0 0 0 1 2 2 1 0 0 0 1 3 6 9 13 18 22 22 19 16 15 15 15 15 15 15 15 15 15 15 16 18 19 17 14 11 11 13 16 16 14 12
0 0 0 0 0 1 2 2 2 2 1 2 3 5 8 11 15 19 21 19 17 14 14 15 15 15 16 17 19 18 18 18 18 18 20 19 15 12 11 11 11 11 12 12
0 0 0 0 0 0 1 2 4 5 5 4 5 7 9 12 14 17 18 17 16 16 16 16 16 16 17 18 20 20 20 21 22 21 22 19 15 13 12 12 11 12 13 14
0 0 0 0 0 1 2 4 6 8 7 7 8 9 12 15 16 16 15 15 17 19 18 16 17 19 19 19 19 19 18 19 22 23 22 19 16 14 15 14 15 16 16 16
0 0 0 0 0 1 3 4 6 6 6 7 8 11 15 18 16 12 12 14 17 18 17 17 18 20 20 20 19 18 15 14 17 21 21 20 19 19 18 17 18 18 17 17
0 0 0 0 0 1 3 5 4 4 4 5 8 12 17 18 14 9 9 13 14 13 14 18 19 18 17 18 19 17 14 12 13 16 19 20 22 22 21 19 19 18 16 16
1 0 1 1 1 1 3 5 4 2 3 5 8 12 16 16 13 9 8 11 12 11 12 15 18 17 14 13 15 16 15 13 12 14 17 19 21 22 22 21 19 17 16 16
1 1 2 3 3 3 4 5 4 3 4 6 9 11 13 13 12 9 9 10 12 12 11 12 14 15 14 12 13 15 15 14 14 16 17 19 20 20 20 21 19 18 17 17
1 1 4 5 4 4 5 5 4 4 6 7 8 9 10 10 9 8 8 9 10 11 10 11 12 13 13 13 13 14 15 15 17 18 18 19 19 18 18 19 19 17 16 16
0 1 2 3 3 3 3 3 3 4 5 6 6 7 6 7 7 7 8 7 7 7 8 10 11 11 10 10 11 13 13 14 16 17 17 16 15 15 16 17 17 15 14 13
0 0 1 1 1 1 1 1 1 2 3 3 4 5 4 5 6 7 7 6 5 5 7 9 11 10 8 7 9 11 12 12 14 15 14 12 12 14 15 16 15 13 12 11

GEFSCGP_con_probscp_222.txt.gz
Probability
0 0 0 0 0 0 0 0 0 0 0 0 0 1 3 4 4 5 7 7 5 4 4 6 6 5 3 2 5 7 9 12 13 14 14 13 11 9 7 5 4 3 2 1
0 0 0 0 0 0 0 0 0 0 0 0 0 1 4 4 4 4 6 7 5 4 5 6 6 5 3 4 6 8 9 11 12 12 12 10 9 9 8 6 5 4 3 3
0 0 0 0 0 0 0 0 0 0 0 0 0 1 3 4 3 4 5 4 4 4 4 6 6 4 3 4 6 8 10 11 11 10 9 8 8 9 8 6 4 4 5 4
0 0 0 0 0 0 0 0 0 0 0 0 0 1 2 3 3 3 3 2 2 4 5 6 7 5 3 3 5 7 10 13 13 10 8 8 8 9 9 6 3 3 3 3
0 0 0 0 0 0 0 0 0 0 0 0 0 0 1 2 2 3 2 1 2 5 6 7 8 7 5 4 4 6 11 16 17 12 9 10 10 9 9 7 4 3 2 2
0 0 0 0 1 1 1 1 0 0 0 0 0 0 0 1 1 2 3 3 4 7 9 9 9 8 7 6 6 9 14 18 19 15 11 10 11 12 12 10 8 6 5 5
0 0 1 1 2 2 2 1 0 0 0 0 0 0 1 2 2 3 5 6 7 9 10 11 11 11 12 11 10 14 21 22 20 16 13 11 12 15 14 12 10 9 8 8
0 1 2 3 3 3 2 1 0 0 0 1 1 1 1 3 5 6 6 7 9 12 13 14 14 16 19 19 18 21 27 27 22 18 16 13 13 13 13 11 9 8 8 7
0 1 2 3 3 2 1 0 0 0 1 1 2 1 2 4 6 8 9 11 14 17 18 18 17 19 23 25 24 26 29 29 25 22 20 17 13 11 10 10 9 8 8 7
0 0 1 2 3 2 1 1 1 1 1 2 2 1 2 4 8 11 16 19 22 25 25 24 21 22 25 28 29 30 30 29 28 26 24 20 17 15 14 13 12 11 9 8
0 0 1 2 2 3 3 4 3 2 2 2 1 1 3 6 9 14 20 24 29 31 32 30 28 28 30 32 34 35 33 30 29 29 27 25 23 22 20 18 16 15 12 11
0 0 1 1 1 2 4 5 4 3 3 2 2 2 5 8 10 14 19 25 32 34 35 36 35 36 36 37 39 39 36 33 30 29 29 29 29 27 24 21 20 19 16 14
0 0 0 0 1 1 2 3 3 2 2 3 2 4 8 11 11 13 19 27 34 36 37 38 38 38 40 42 42 41 38 34 30 28 29 31 31 29 25 22 22 23 20 17
0 0 0 0 0 0 0 1 1 1 1 1 1 4 11 15 16 18 23 31 35 37 39 38 37 38 41 44 43 41 39 34 30 28 28 29 29 28 25 24 24 24 22 19
0 0 0 0 0 0 0 0 0 0 0 0 1 5 14 20 24 27 31 35 37 37 39 38 37 40 42 42 42 41 38 36 33 31 29 28 28 26 24 24 25 25 23 20
0 0 0 0 0 0 0 0 0 0 0 0 2 8 18 26 31 34 37 38 39 39 38 37 38 41 43 41 40 40 40 39 39 37 33 31 30 28 27 26 26 24 22 20
0 0 0 0 0 0 0 0 1 1 1 2 6 13 22 28 31 34 37 39 40 41 38 34 35 39 41 39 40 41 41 42 43 40 38 36 34 32 30 30 28 24 21 20
0 0 0 0 0 0 0 1 2 2 3 7 10 14 19 24 27 30 34 37 40 41 38 33 31 34 37 37 39 41 42 44 45 43 42 40 37 34 32 32 30 26 22 20
0 0 0 0 0 0 0 2 2 3 5 9 11 12 15 19 23 28 32 34 38 41 40 34 31 32 35 35 37 39 40 43 44 44 42 41 40 37 34 32 32 29 25 24
0 0 0 0 0 1 3 4 3 3 6 10 13 14 17 20 24 28 30 32 36 40 40 35 32 34 36 35 34 34 35 37 38 39 38 39 41 39 36 34 33 32 31 31
0 0 0 0 0 2 6 6 5 6 11 15 18 21 22 25 28 29 29 30 35 38 37 35 33 34 36 35 32 31 31 31 31 31 32 35 37 36 34 34 34 33 33 32
1 1 2 2 4 7 10 11 12 15 18 21 23 24 24 26 28 28 26 26 30 32 31 30 32 33 33 33 33 32 31 30 28 26 26 28 29 28 28 30 31 31 30 29
4 5 6 8 11 13 15 18 19 20 21 22 22 21 20 21 24 24 24 24 23 24 23 25 29 30 31 32 32 31 29 27 27 26 23 21 21 21 23 26 27 27 26 25
8 10 11 13 16 17 17 18 18 18 19 19 18 17 15 16 19 21 22 22 20 18 18 21 24 27 28 29 27 25 24 23 26 27 24 21 19 18 20 22 22 22 23 23
11 12 12 14 16 17 17 16 16 17 16 15 14 14 13 13 14 16 17 18 17 15 15 18 20 22 24 23 21 20 21 21 24 27 26 23 19 17 17 17 17 17 19 20
12 12 12 13 15 17 16 15 17 17 14 11 11 11 10 12 13 12 12 13 13 13 13 16 18 20 20 18 18 19 20 22 24 25 25 23 20 17 16 14 14 14 15 16

GEFSCGP_con_probscp_228.txt.gz
Probability
0 0 0 0 0 0 0 0 0 0 0 0 0 1 2 3 4 8 12 15 13 11 11 12 13 16 22 31 33 28 23 19 16 14 12 10 8 7 8 11 17 22 21 18
0 0 0 0 0 0 0 0 0 0 0 0 0 1 4 4 4 7 11 15 15 15 18 21 20 19 23 31 34 31 26 21 17 15 14 13 9 9 11 14 19 22 21 20
0 0 0 0 0 0 0 0 0 0 0 0 0 2 5 6 7 8 10 13 16 20 27 30 25 21 23 29 33 32 31 27 20 18 17 15 11 10 13 16 21 23 22 22
0 0 0 0 0 0 0 0 0 0 0 0 0 2 6 9 11 12 11 12 15 22 31 34 28 22 22 26 30 34 37 34 27 22 20 16 12 10 13 17 21 23 23 24
0 0 0 0 0 0 0 0 0 0 0 0 0 2 6 11 14 13 12 13 16 23 33 38 34 27 23 23 27 35 43 42 33 25 23 19 14 12 16 21 23 22 23 24
0 0 0 0 0 0 0 0 0 0 0 0 0 1 5 9 11 11 12 16 20 25 36 41 41 38 31 26 30 40 48 47 39 31 28 25 20 18 22 26 25 21 20 22
0 0 0 0 0 0 0 0 0 0 0 0 0 2 5 7 7 9 13 20 26 31 37 42 47 50 44 39 43 51 55 52 44 38 36 34 30 26 25 26 24 18 17 19
0 0 0 0 0 0 0 1 1 1 1 0 1 3 5 6 6 8 14 24 33 36 38 42 49 54 54 54 57 61 60 56 49 44 42 41 37 30 24 24 22 17 16 17
0 0 0 0 0 0 0 1 2 2 1 0 1 4 6 6 7 10 17 28 37 40 39 42 46 49 53 58 62 64 62 57 51 47 45 43 39 31 24 22 20 17 16 16
0 0 0 0 0 0 1 2 3 3 2 0 1 4 7 9 11 14 21 31 39 42 43 45 47 47 48 53 60 62 62 58 52 48 45 43 39 33 27 23 19 18 19 18
0 0 0 0 0 0 1 2 3 3 2 1 1 4 9 13 15 19 26 34 40 44 47 51 52 50 49 51 57 62 63 60 55 50 46 44 40 36 32 29 26 26 26 26
0 0 0 0 0 0 1 2 3 3 3 1 1 6 12 17 21 25 32 39 45 50 53 57 58 57 55 54 58 61 61 60 58 54 49 46 43 41 39 36 36 37 37 35
0 0 0 0 0 0 1 2 3 3 2 1 2 8 17 24 27 32 39 46 52 57 60 64 66 66 63 60 60 60 58 57 57 54 51 48 46 45 43 41 40 43 42 39
0 0 0 0 0 0 0 1 1 2 1 0 2 10 21 29 32 37 46 52 56 60 64 68 73 74 69 66 64 61 58 56 55 53 51 50 50 48 45 43 43 44 43 39
1 0 0 0 0 0 0 0 1 2 1 1 4 13 26 34 39 45 50 55 56 59 62 65 71 72 70 68 67 65 63 61 59 58 56 55 53 50 46 44 44 44 42 39
2 1 0 0 0 0 0 0 1 2 2 4 9 20 32 40 46 49 51 53 56 57 59 61 63 63 63 64 64 64 64 65 64 63 61 59 56 52 47 43 41 41 41 40
3 2 1 0 0 0 0 1 1 1 3 9 16 26 34 42 47 48 48 50 55 58 57 57 56 55 55 57 58 57 59 61 62 61 60 58 55 52 49 45 40 37 39 40
4 5 3 0 0 0 0 1 2 2 5 13 21 26 31 37 42 45 46 47 50 54 55 52 49 48 49 50 51 52 53 55 56 56 57 56 54 52 50 47 43 39 39 41
4 6 3 0 0 0 0 1 3 5 10 16 22 25 28 33 39 44 46 45 46 49 50 47 44 43 44 44 46 49 51 52 52 52 54 55 54 53 50 49 47 44 41 41
3 4 3 0 0 1 2 2 2 7 15 22 28 32 35 39 43 45 44 42 43 46 46 43 41 41 41 40 44 47 49 48 48 47 48 51 52 51 49 48 47 45 41 39
1 2 2 1 2 5 8 7 9 16 25 31 37 42 44 46 47 46 42 40 41 42 41 41 42 42 40 39 41 44 43 42 41 41 40 41 42 42 43 44 42 40 38 37
2 3 5 5 7 12 16 17 23 33 38 39 41 42 42 44 44 42 41 40 40 39 38 40 43 43 39 36 35 37 37 37 37 37 35 32 32 34 37 39 37 36 34 33
5 7 10 11 13 18 22 26 32 39 43 42 38 36 35 37 37 37 39 39 38 38 37 38 39 39 35 31 30 31 32 33 34 33 31 29 28 30 32 34 34 33 31 29
8 11 14 18 19 21 25 28 28 32 37 36 32 30 30 31 33 35 36 35 34 35 35 32 30 30 29 28 28 29 30 31 30 29 27 27 26 26 27 29 29 29 28 26
12 14 18 22 23 24 26 26 24 25 29 29 27 26 25 27 29 31 32 31 29 28 27 23 21 22 25 27 29 29 29 28 27 26 23 23 22 20 21 23 23 21 20 19
16 18 22 24 24 26 26 23 21 23 25 26 26 25 24 25 27 27 28 27 24 23 22 18 16 18 22 26 28 28 28 26 25 24 21 19 19 18 18 19 18 15 12 11

GEFSCGP_con_probscp_234.txt.gz
Probability
0 0 0 0 0 0 0 0 0 0 1 1 1 0 1 3 7 9 9 8 9 9 8 6 6 6 9 10 9 10 10 8 6 5 3 2 1 1 0 0 0 0 0 0
0 0 0 0 0 0 0 0 0 0 0 0 0 0 1 3 6 8 8 8 8 7 6 6 6 8 12 13 12 11 12 10 7 5 3 1 1 1 0 0 0 0 0 1
0 0 0 0 0 0 0 0 0 0 0 0 0 0 0 2 5 8 9 8 8 7 6 6 7 13 18 19 16 13 12 12 10 8 5 3 2 1 1 0 0 0 1 2
0 0 0 0 0 0 0 0 0 0 0 0 0 0 0 2 7 10 10 10 10 10 10 10 12 18 24 23 19 14 12 12 13 12 9 7 5 3 2 1 1 0 1 3
0 0 0 0 0 0 0 0 0 0 0 0 0 0 1 4 8 11 12 11 12 13 15 16 18 22 25 23 19 16 13 13 14 15 13 10 8 6 5 4 2 2 3 4
0 0 0 0 0 0 0 1 0 0 0 0 0 0 2 5 8 11 14 14 15 16 19 21 23 24 25 23 21 18 17 17 17 17 16 13 10 8 7 6 5 4 4 4
0 0 0 0 0 0 0 0 0 0 0 0 0 0 1 3 7 12 17 18 18 20 21 23 25 25 26 26 24 22 20 20 21 21 19 15 11 10 9 7 6 6 5 4
0 0 0 0 0 0 0 0 0 0 0 0 0 0 1 4 7 13 18 20 21 23 25 26 25 25 27 26 25 23 23 23 23 22 20 17 13 11 10 8 8 8 6 4
0 0 0 0 0 0 0 0 0 0 0 0 0 0 2 6 10 16 21 23 25 27 30 30 27 28 29 29 27 27 27 27 24 22 20 17 15 13 12 11 11 10 7 5
0 0 0 0 0 0 0 0 0 0 0 0 0 0 2 6 12 19 23 25 27 29 32 33 31 32 35 36 33 31 31 29 26 23 21 17 15 15 15 14 13 11 9 7
0 0 0 0 0 0 0 0 0 0 0 0 0 1 3 6 12 17 22 25 25 25 29 33 34 36 40 42 38 34 32 31 29 26 23 20 17 17 17 16 15 14 11 9
0 0 0 0 0 0 0 0 0 0 0 0 1 4 7 10 12 16 22 26 25 24 28 32 35 38 42 43 41 36 32 31 32 29 27 25 23 21 19 17 17 16 14 12
0 0 0 0 0 0 0 0 0 0 0 1 3 8 12 15 17 20 25 28 28 30 32 34 37 40 41 40 39 36 33 32 33 32 31 30 29 26 20 17 17 17 16 15
0 0 0 0 0 0 0 0 0 0 1 2 6 11 16 19 21 22 26 29 32 35 36 36 36 36 37 35 34 35 35 34 33 33 35 35 34 30 23 18 17 18 17 16
0 0 0 0 0 0 0 0 0 0 1 4 9 13 17 20 21 21 24 30 35 37 35 34 32 31 32 31 30 32 34 35 34 34 36 38 37 34 29 23 21 20 18 17
0 0 0 0 0 0 0 0 1 2 4 8 12 16 20 24 23 20 21 28 34 36 33 32 32 31 30 29 29 30 32 34 35 35 35 34 34 35 33 30 27 24 21 19
0 0 0 0 0 0 0 1 2 4 7 9 13 20 25 27 25 21 20 25 30 33 32 32 32 30 27 27 28 30 30 31 33 34 32 30 32 34 33 32 31 28 24 20
0 0 0 0 0 0 1 3 4 6 9 11 15 22 27 28 27 23 21 23 27 30 31 30 30 28 25 25 27 29 28 29 32 32 30 31 33 33 32 32 32 30 27 24
0 0 0 0 0 1 3 5 7 9 14 19 22 25 29 31 30 26 22 24 28 29 29 27 26 26 25 24 26 27 28 29 31 31 31 32 34 34 33 32 31 31 30 28
1 0 0 0 0 1 5 8 9 12 18 24 27 30 33 34 31 25 23 25 26 25 24 23 22 22 22 21 23 25 26 26 27 29 31 31 31 32 31 30 29 30 29 28
1 0 0 0 1 3 7 10 11 12 16 21 27 31 32 32 28 25 25 26 23 20 19 18 17 17 17 17 19 22 24 23 23 25 27 25 24 25 25 24 24 25 25 23
1 0 0 1 2 4 8 11 11 11 13 17 23 27 29 30 28 28 27 25 21 17 16 14 13 13 13 13 15 19 20 20 20 21 20 19 17 16 16 16 18 20 20 20
1 1 2 4 5 6 8 8 8 10 13 16 20 24 28 29 28 27 25 21 18 16 14 12 11 11 12 12 14 16 17 17 17 16 15 14 13 11 11 12 13 14 15 15
4 4 5 7 9 10 9 9 9 11 15 18 20 24 26 26 24 22 18 14 13 14 12 10 10 10 10 11 12 13 13 14 14 13 13 12 11 10 9 9 10 11 11 10
6 6 7 8 9 10 11 11 12 14 17 18 19 20 21 20 18 15 11 8 8 9 9 9 9 8 7 7 9 10 10 11 12 12 12 12 10 9 8 8 8 9 9 9
7 7 7 8 8 9 11 11 12 15 16 16 16 16 17 16 13 10 8 6 6 7 7 8 9 7 4 5 6 8 9 10 11 12 13 12 9 8 8 8 7 8 9 8

GEFSCGP_con_probscp_240.txt.gz
Probability
0 0 0 0 0 0 0 0 0 0 0 0 0 0 0 1 2 3 3 3 3 2 1 0 0 0 0 0 0 0 1 3 3 2 0 0 0 0 0 0 0 0 0 0
0 0 0 0 1 1 0 0 0 0 0 0 0 0 0 0 1 2 2 3 3 2 1 0 0 0 0 0 0 0 1 4 5 4 2 1 0 0 0 0 0 0 0 0
0 0 0 1 2 1 0 0 0 0 0 0 0 0 0 0 0 0 1 3 3 1 0 1 1 1 1 1 1 1 2 4 7 8 6 4 2 1 1 0 0 0 0 1
0 0 0 1 2 1 0 0 0 0 0 0 0 0 0 0 0 0 1 3 3 1 1 3 5 5 4 3 3 3 2 4 7 9 8 8 6 4 2 1 1 0 0 1
0 0 0 1 1 0 0 0 0 0 0 0 0 0 0 0 0 0 2 5 5 4 5 8 10 9 6 5 6 5 3 4 6 8 9 9 9 7 4 3 2 1 1 1
0 0 0 0 0 0 0 0 0 0 0 0 0 0 0 1 2 2 3 7 9 10 11 12 13 11 6 5 7 7 6 5 7 8 9 9 10 10 8 6 4 3 3 3
0 0 0 0 0 0 0 0 0 0 0 0 0 0 1 4 5 4 5 7 10 14 16 15 13 10 6 5 6 7 7 7 8 9 10 10 11 12 11 8 6 6 5 5
0 0 0 0 0 0 0 0 0 0 0 0 0 0 2 5 7 6 5 6 10 14 16 16 12 9 6 6 8 9 8 8 8 9 10 11 12 12 10 9 8 7 6 5
0 0 0 0 0 0 0 0 0 0 0 0 0 1 3 6 8 9 7 7 9 13 15 15 12 9 8 9 11 12 12 11 10 11 11 11 11 9 8 8 7 6 5 5
0 0 0 0 0 0 0 0 0 0 0 0 0 1 3 6 9 11 10 9 9 10 13 14 12 10 11 12 14 16 16 15 14 14 13 10 8 7 7 7 6 5 5 5
0 0 0 0 0 0 0 0 0 0 0 0 0 1 3 6 10 13 12 10 7 7 10 13 13 11 12 14 15 18 19 18 16 14 13 10 7 6 6 6 7 8 9 9
0 0 0 0 0 0 0 0 0 0 0 0 0 1 4 8 11 13 11 7 5 5 9 12 13 13 15 16 17 19 19 17 15 13 11 10 10 8 7 8 11 14 13 12
0 0 0 0 0 0 0 0 0 0 0 0 0 2 5 9 12 12 9 4 3 6 10 14 16 17 18 19 20 20 19 17 16 14 11 11 13 14 13 13 15 16 15 13
0 0 0 0 0 0 0 0 0 0 0 0 0 1 4 7 10 11 9 5 4 6 9 13 16 18 19 20 21 21 21 19 17 14 12 13 16 19 20 19 17 16 15 14
0 0 0 0 0 0 0 0 0 0 0 0 0 1 3 6 10 11 10 8 7 7 9 12 14 16 18 18 20 23 24 22 20 18 17 17 19 21 22 22 19 16 15 13
0 0 0 0 0 0 0 0 0 0 0 1 1 3 5 7 10 11 10 10 10 10 10 11 12 14 16 17 20 25 27 25 24 24 24 23 23 23 22 21 18 15 13 12
0 0 0 0 0 0 0 0 0 1 1 2 3 4 6 8 9 10 10 10 11 11 11 12 11 11 12 15 19 24 26 26 25 26 27 27 26 25 23 20 17 15 13 12
0 0 0 0 0 0 0 1 1 1 2 3 5 6 8 10 10 9 9 9 9 9 11 12 12 13 14 15 18 21 22 23 23 23 24 26 26 24 23 21 19 17 16 15
0 0 0 0 0 0 0 1 1 1 3 5 7 9 12 14 13 10 9 8 7 8 9 11 14 17 17 17 19 20 21 20 19 19 21 22 22 20 20 21 20 20 18 17
0 0 0 1 1 1 0 1 1 1 2 4 7 10 14 16 14 10 10 11 10 9 8 10 13 16 17 18 19 19 19 16 14 14 17 18 18 17 17 17 17 17 17 16
0 0 0 1 2 1 0 0 0 0 1 3 5 8 13 15 13 11 12 15 14 11 10 12 13 13 15 17 18 17 14 11 9 10 13 15 16 15 15 14 13 14 14 13
0 0 0 1 2 1 0 0 0 0 1 2 3 6 11 14 13 12 14 17 16 14 12 12 12 11 11 12 15 14 10 7 7 9 10 12 14 14 14 14 12 13 14 14
1 0 0 0 0 0 0 0 0 0 2 3 4 6 10 13 14 14 15 16 15 13 12 11 10 9 8 8 9 9 7 6 7 8 9 10 11 12 12 12 11 12 14 15
2 1 1 0 1 1 1 1 0 1 3 5 6 8 10 13 14 15 15 15 14 12 11 10 9 8 6 5 4 5 5 6 6 6 7 8 10 12 12 11 10 11 12 13
3 3 2 1 1 2 3 2 1 1 4 6 8 9 10 12 13 14 13 13 12 10 9 9 9 7 4 3 3 3 4 5 5 5 5 7 10 11 11 10 9 8 8 9
3 3 2 1 1 2 3 3 1 2 4 6 7 9 10 11 12 12 11 10 10 9 8 8 8 6 4 2 3 3 4 4 4 5 6 8 10 11 11 9 8 7 6 6